Flag for U.S.A. Weather past 2 weeks in Flint, Michigan, U.S.A.

Now
15 °F

Passing clouds.


Feels Like: -1 °F
Forecast: 10 / 20 °F
Wind: 17 mph from North

Location: Bishop International Airport

Current Time: Jan 30, 2015 at 12:06:31 PM

Latest Report: Jan 30, 2015 at 10:53 AM


Visibility: 10 mi

Pressure: 30.50 "Hg

Humidity: 56%

Dew point: 2 °F

Location of FlintLocation

Historic Weather in Flint — Graph

°F

Flint temperature yesterday

Maximum temperature yesterday: 33 °F (at 10:53 AM)
Minimum temperature yesterday: 25 °F (at 11:53 PM)
Average temperature yesterday: 31 °F

Past Weeks' High & Low Weather Summary

 TemperatureHumidityPressure
High44 °F (Jan 17, 3:53 PM)89% (Jan 18, 7:53 AM)30.50 "Hg (Jan 18, 7:53 AM)
Low6 °F (Jan 28, 5:53 AM)33% (Jan 28, 2:53 PM)29.56 "Hg (Jan 24, 1:53 PM)
Average27 °F71%30.02 "Hg
* Reported Jan 15 10:53 AM — Jan 30 10:53 AM, Flint, Weather by CustomWeather, © 2014

Note: Actual official high and low records may vary slightly from our data, if they occured in-between our weather recording intervals... More about our weather records

Advertising

Flint weather history for previous 24 hours

 ConditionsComfort  
Time TempWeatherWind HumidityBarometerVisibility
10:53 AM
Jan 30
15 °FPassing clouds.17 mph56%30.50 "Hg10 mi
9:53 AM14 °FPassing clouds.20 mph56%30.47 "Hg10 mi
8:53 AM14 °FPartly sunny.14 mph61%30.45 "Hg10 mi
7:53 AM14 °FLight snow. Partly sunny.14 mph71%30.41 "Hg5 mi
6:53 AM16 °FLight snow. Mostly cloudy.14 mph67%30.38 "Hg6 mi
6:01 AM17 °FMostly cloudy.18 mph62%30.30 "Hg9 mi
4:53 AM19 °FLight snow. Mostly cloudy.16 mph71%30.29 "Hg3 mi
3:53 AM21 °FOvercast.23 mph62%30.25 "Hg10 mi
3:02 AM22 °FMostly cloudy.17 mph66%30.19 "Hg9 mi
2:53 AM22 °FLight snow. Mostly cloudy.16 mph68%30.22 "Hg5 mi
1:53 AM23 °FOvercast.18 mph63%30.17 "Hg10 mi
12:53 AM25 °FLight snow. Overcast.21 mph63%30.15 "Hg9 mi
11:53 PM
Jan 29
25 °FMostly cloudy.22 mph63%30.13 "Hg10 mi
10:53 PM29 °FOvercast.20 mph64%30.08 "Hg10 mi
9:53 PM30 °FMostly cloudy.13 mph66%30.05 "Hg10 mi
8:53 PM31 °FOvercast.22 mph67%30.02 "Hg10 mi
7:53 PM33 °FOvercast.15 mph72%29.99 "Hg10 mi
6:53 PM32 °FIce fog.10 mph85%29.96 "Hg4 mi
5:53 PM32 °FOvercast.15 mph82%29.91 "Hg6 mi
4:53 PM32 °FMostly cloudy.13 mph82%29.86 "Hg3 mi
3:53 PM32 °FLight snow. Overcast.12 mph82%29.82 "Hg1 mi
3:04 PM32 °FLight snow. Overcast.13 mph82%29.76 "Hg1 mi
3:00 PM32 °FLight snow. Fog.14 mph85%29.76 "Hg1 mi
1:55 PM32 °FLight snow. Ice fog.10 mph85%29.73 "Hg1 mi
1:53 PM32 °FLight snow. Ice fog.10 mph85%29.75 "Hg2 mi
12:53 PM32 °FMostly cloudy.7 mph79%29.76 "Hg4 mi
12:03 PM33 °FLight rain. Overcast.6 mph70%29.75 "Hg4 mi
Weather by CustomWeather, © 2014

See weather overviewHow to use our weather pages